TimeEST,TemperatureF,Dew PointF,Humidity,Sea Level PressureIn,VisibilityMPH,Wind Direction,Wind SpeedMPH,Gust SpeedMPH,PrecipitationIn,Events,Conditions,WindDirDegrees,DateUTC
12:15 AM,53.8,40.8,62,30.01,10.0,North,10.4,21.9,N/A,,Overcast,10,2013-11-08 05:15:00
12:35 AM,53.4,40.1,61,30.01,10.0,North,12.7,20.7,N/A,,Overcast,350,2013-11-08 05:35:00
12:55 AM,53.2,39.7,60,30.02,10.0,North,11.5,19.6,N/A,,Mostly Cloudy,350,2013-11-08 05:55:00
1:15 AM,52.5,39.0,60,30.02,10.0,North,10.4,21.9,N/A,,Mostly Cloudy,350,2013-11-08 06:15:00
1:35 AM,52.2,38.8,60,30.03,10.0,North,6.9,20.7,N/A,,Mostly Cloudy,350,2013-11-08 06:35:00
1:55 AM,51.1,38.1,61,30.04,10.0,NNW,9.2,17.3,N/A,,Mostly Cloudy,330,2013-11-08 06:55:00
2:15 AM,50.2,38.3,64,30.05,10.0,NNW,8.1,16.1,N/A,,Mostly Cloudy,340,2013-11-08 07:15:00
2:35 AM,50.0,37.4,62,30.06,10.0,NNW,11.5,18.4,N/A,,Overcast,330,2013-11-08 07:35:00
2:55 AM,49.8,35.6,58,30.07,10.0,NNW,12.7,19.6,N/A,,Overcast,330,2013-11-08 07:55:00
3:15 AM,49.3,34.3,56,30.07,10.0,NW,11.5,20.7,N/A,,Overcast,320,2013-11-08 08:15:00
3:35 AM,48.9,34.3,57,30.08,10.0,NNW,12.7,19.6,N/A,,Mostly Cloudy,330,2013-11-08 08:35:00
3:55 AM,47.8,33.4,57,30.09,10.0,NNW,11.5,19.6,N/A,,Clear,330,2013-11-08 08:55:00
4:15 AM,47.3,32.0,55,30.10,10.0,NNW,9.2,17.3,N/A,,Clear,330,2013-11-08 09:15:00
4:35 AM,47.1,32.2,56,30.11,10.0,NNW,12.7,21.9,N/A,,Scattered Clouds,330,2013-11-08 09:35:00
4:55 AM,46.8,32.2,57,30.13,10.0,NNW,9.2,20.7,N/A,,Mostly Cloudy,330,2013-11-08 09:55:00
5:15 AM,45.9,29.5,53,30.14,10.0,NW,15.0,23.0,N/A,,Scattered Clouds,320,2013-11-08 10:15:00
5:35 AM,45.1,26.4,48,30.14,10.0,NW,10.4,20.7,N/A,,Clear,320,2013-11-08 10:35:00
5:55 AM,45.0,27.3,50,30.15,10.0,NW,5.8,20.7,N/A,,Clear,320,2013-11-08 10:55:00
6:15 AM,45.1,28.0,51,30.16,10.0,NNW,9.2,23.0,N/A,,Clear,330,2013-11-08 11:15:00
6:35 AM,44.8,27.1,50,30.17,10.0,NW,9.2,17.3,N/A,,Clear,320,2013-11-08 11:35:00
6:55 AM,44.8,26.1,48,30.17,10.0,NNW,10.4,19.6,N/A,,Clear,330,2013-11-08 11:55:00
7:15 AM,45.1,26.6,48,30.18,10.0,NNW,6.9,17.3,N/A,,Clear,330,2013-11-08 12:15:00
7:35 AM,45.5,27.9,50,30.18,10.0,NNW,8.1,18.4,N/A,,Clear,330,2013-11-08 12:35:00
7:55 AM,45.7,28.2,51,30.18,10.0,NW,9.2,-,N/A,,Clear,320,2013-11-08 12:55:00
8:15 AM,46.6,27.9,48,30.19,10.0,NNW,10.4,17.3,N/A,,Clear,330,2013-11-08 13:15:00
8:35 AM,47.3,27.7,47,30.20,10.0,NNW,8.1,18.4,N/A,,Clear,330,2013-11-08 13:35:00
8:55 AM,47.8,28.9,48,30.20,10.0,NW,8.1,16.1,N/A,,Clear,310,2013-11-08 13:55:00
9:15 AM,48.0,29.1,48,30.20,10.0,NW,9.2,17.3,N/A,,Clear,320,2013-11-08 14:15:00
9:35 AM,48.4,28.0,45,30.20,10.0,NW,10.4,18.4,N/A,,Clear,320,2013-11-08 14:35:00
9:55 AM,48.9,26.6,42,30.21,10.0,NW,8.1,17.3,N/A,,Clear,310,2013-11-08 14:55:00
10:15 AM,49.3,26.2,41,30.21,10.0,NW,8.1,-,N/A,,Clear,310,2013-11-08 15:15:00
10:35 AM,49.8,24.6,37,30.20,10.0,NW,10.4,17.3,N/A,,Clear,310,2013-11-08 15:35:00
10:55 AM,49.6,23.7,36,30.21,10.0,NW,10.4,17.3,N/A,,Clear,310,2013-11-08 15:55:00
11:15 AM,49.6,23.0,35,30.20,10.0,NNW,10.4,19.6,N/A,,Clear,330,2013-11-08 16:15:00
11:35 AM,50.2,23.0,35,30.19,10.0,NW,9.2,20.7,N/A,,Clear,310,2013-11-08 16:35:00
11:55 AM,50.5,23.7,35,30.19,10.0,NNW,10.4,17.3,N/A,,Clear,340,2013-11-08 16:55:00
12:15 PM,50.9,23.0,34,30.18,10.0,NNW,8.1,18.4,N/A,,Clear,330,2013-11-08 17:15:00
12:35 PM,51.1,22.5,33,30.17,10.0,NNW,8.1,17.3,N/A,,Clear,330,2013-11-08 17:35:00
12:55 PM,51.4,22.3,32,30.17,10.0,North,8.1,-,N/A,,Clear,350,2013-11-08 17:55:00
1:15 PM,51.3,22.5,32,30.17,10.0,North,9.2,20.7,N/A,,Clear,360,2013-11-08 18:15:00
1:35 PM,51.4,22.8,33,30.17,10.0,NNW,6.9,-,N/A,,Clear,330,2013-11-08 18:35:00
1:55 PM,51.8,24.1,34,30.17,10.0,NW,5.8,-,N/A,,Clear,320,2013-11-08 18:55:00
2:15 PM,52.0,24.4,34,30.17,10.0,North,9.2,-,N/A,,Clear,350,2013-11-08 19:15:00
2:35 PM,51.8,24.4,34,30.18,10.0,NW,6.9,16.1,N/A,,Clear,320,2013-11-08 19:35:00
2:55 PM,51.8,24.6,35,30.18,10.0,WNW,8.1,-,N/A,,Clear,300,2013-11-08 19:55:00
3:15 PM,51.4,25.3,36,30.18,10.0,North,6.9,-,N/A,,Clear,350,2013-11-08 20:15:00
3:35 PM,51.1,25.9,38,30.18,10.0,NNW,3.5,-,N/A,,Clear,330,2013-11-08 20:35:00
3:55 PM,50.9,26.4,39,30.19,10.0,NNW,5.8,-,N/A,,Clear,330,2013-11-08 20:55:00
4:15 PM,50.2,26.8,40,30.19,10.0,NNW,5.8,-,N/A,,Clear,330,2013-11-08 21:15:00
4:35 PM,49.5,28.0,44,30.20,10.0,NNW,3.5,-,N/A,,Clear,340,2013-11-08 21:35:00
4:55 PM,48.4,28.4,46,30.21,10.0,NW,3.5,-,N/A,,Clear,320,2013-11-08 21:55:00
5:15 PM,47.7,28.2,47,30.22,10.0,NW,4.6,-,N/A,,Clear,320,2013-11-08 22:15:00
5:35 PM,47.3,28.0,47,30.22,10.0,NNW,4.6,-,N/A,,Clear,340,2013-11-08 22:35:00
5:55 PM,47.5,27.5,46,30.23,10.0,NNW,4.6,-,N/A,,Clear,330,2013-11-08 22:55:00
6:15 PM,47.7,27.0,45,30.24,10.0,NNW,5.8,-,N/A,,Clear,330,2013-11-08 23:15:00
6:35 PM,47.5,26.4,44,30.25,10.0,NNW,4.6,-,N/A,,Clear,340,2013-11-08 23:35:00
6:55 PM,47.3,26.1,44,30.25,10.0,NNW,6.9,-,N/A,,Clear,330,2013-11-08 23:55:00
7:15 PM,47.5,25.0,41,30.25,10.0,NNW,5.8,-,N/A,,Clear,330,2013-11-09 00:15:00
7:35 PM,47.5,24.6,41,30.26,10.0,NNW,5.8,-,N/A,,Clear,340,2013-11-09 00:35:00
7:55 PM,47.3,24.8,41,30.26,10.0,NNW,5.8,-,N/A,,Clear,340,2013-11-09 00:55:00
8:15 PM,47.3,25.0,42,30.27,10.0,NNW,4.6,-,N/A,,Clear,330,2013-11-09 01:15:00
8:35 PM,47.1,25.5,43,30.27,10.0,NW,4.6,-,N/A,,Clear,320,2013-11-09 01:35:00
8:55 PM,46.9,26.1,44,30.27,10.0,NNW,4.6,-,N/A,,Clear,330,2013-11-09 01:55:00
9:15 PM,46.6,26.2,45,30.28,10.0,NNW,4.6,-,N/A,,Clear,330,2013-11-09 02:15:00
9:35 PM,46.8,27.1,46,30.28,10.0,NW,3.5,-,N/A,,Clear,320,2013-11-09 02:35:00
9:55 PM,46.8,29.1,50,30.28,10.0,Calm,Calm,-,N/A,,Clear,0,2013-11-09 02:55:00
10:15 PM,46.8,30.2,53,30.28,10.0,NW,3.5,-,N/A,,Clear,320,2013-11-09 03:15:00
10:35 PM,46.8,30.6,53,30.28,10.0,NW,4.6,-,N/A,,Clear,320,2013-11-09 03:35:00
10:55 PM,46.8,31.6,56,30.29,10.0,NW,4.6,-,N/A,,Clear,320,2013-11-09 03:55:00
11:15 PM,46.6,32.2,57,30.29,10.0,NNW,3.5,-,N/A,,Clear,330,2013-11-09 04:15:00
11:35 PM,46.6,31.8,56,30.28,10.0,NNW,4.6,-,N/A,,Clear,330,2013-11-09 04:35:00
11:55 PM,46.6,31.1,55,30.29,10.0,NNW,4.6,-,N/A,,Clear,340,2013-11-09 04:55:00